Overview Statistics Trail Chart Weather Telemetry Raw packets
 

This is the latest recevied weather packets stored in our database for station/object W5CDN. If no packets are shown the sender has not sent any weather packets the latest 10 day(s).

<< 44 45 46 47 48 49 50 >>
Time Temp. Humidity Pressure Rain* Wind** Luminosity Snow
1788122036 36.67° C 39% 1012.8 hPa 0 mm - - -
1788121736 37.78° C 40% 1013 hPa 0 mm - - -
1788121436 37.22° C 39% 1012.9 hPa 0 mm - - -
1788121136 37.78° C 38% 1013.2 hPa 0 mm - - -
1788120836 37.78° C 37% 1013 hPa 0 mm - - -
1788120536 37.78° C 37% 1013.2 hPa 0 mm - - -
1788120236 36.67° C 37% 1013.3 hPa 0 mm - - -
1788119936 36.67° C 37% 1013.5 hPa 0 mm - - -
1788119636 37.78° C 37% 1013.5 hPa 0 mm - - -
1788119336 35.56° C 39% 1013.5 hPa 0 mm - - -
1788119036 35° C 40% 1013.5 hPa 0 mm - - -
1788118736 35° C 40% 1013.9 hPa 0 mm - - -
1788118436 35.56° C 41% 1013.9 hPa 0 mm - - -
1788118136 37.22° C 41% 1014 hPa 0 mm - - -
1788117836 37.78° C 39% 1013.9 hPa 0 mm - - -
1788117536 36.11° C 42% 1014.1 hPa 0 mm - - -
1788117236 35.56° C 41% 1014.1 hPa 0 mm - - -
1788116936 36.11° C 44% 1014.2 hPa 0 mm - - -
1788116636 35° C 44% 1014.2 hPa 0 mm - - -
1788116336 36.67° C 45% 1014.4 hPa 0 mm - - -
1788116036 36.11° C 45% 1014.3 hPa 0 mm - - -
1788115736 36.11° C 45% 1014.5 hPa 0 mm - - -
1788115436 35.56° C 46% 1014.3 hPa 0 mm - - -
1788115136 35.56° C 45% 1014.5 hPa 0 mm - - -
1788114836 35.56° C 44% 1014.7 hPa 0 mm - - -

* Rain latest hour (hover to see other rain measurements)
** Current wind speed in m/s (hover to see current wind gust speed)